TITAN 3C TRANSTAGE DEB, 26777

Orbit data source: Space-Track

TITAN 3C TRANSTAGE DEB, 26777 is space debris in HEO originally from a launch on Tue, 21 Dec 1965 UTC launched from the Air Force Eastern Test Range (AFETR). Debris objects in space refer to the collection of defunct objects orbiting the Earth. Examples of debris include non-operational satellites, rocket bodies, and fragments generated from explosions, collisions, or faulty payload assembly.

Loading next visibility...
Identifier
26777, 1965-108AV
Orbit
HEO
Country
Flag of USUS
Related business
Manufacturer
Unknown
Mission
Spacecraft
Bus & Motor
Unknown
Mass
Unknown
Launch date (UTC)
1965-12-21 (60 years ago)
Launch vehicle
Unknown
Launch site
Air Force Eastern Test Range (AFETR)
Object type
Payload
Rocket body
Debris
Shape & HBR
Unknown shape, 0.2 m
Radar Cross Section
Medium (>0.1 m² and <1 m²)

Expand to show TLE details & history
Last TLE update: 2 weeks ago

TLE from 2 weeks ago
0 TITAN 3C TRANSTAGE DEB
1 26777U 65108AV  26149.22583252 -.00000022  00000-0  00000-0 0  9995
2 26777  26.6552 200.9580 6703229  67.6660 357.5021  2.56601394 45559
Epoch: 2026-05-29T05:25Z
TLE epoch observation values (Epoch: 2026-05-29T05:25:11.929Z)
Latitude
20.52293°
Longitude
-79.1664°
Altitude
1,163.433 km
Speed
9.383 km/s
True Right ascension
16h 35m 34s
True Declination
20° 24' 59"
Sunlit
Object was in full shadow at epoch
Visualization orbit readout
Latitude
Unknown
Longitude
Unknown
Altitude
Unknown
Speed
Unknown
Apparent Right ascension
Unknown
Apparent Declination
Unknown
Sunlit
N/A
Visualization observer readout
Local Sidereal Time
02:36:41
Azimuth
Unknown
Elevation
Unknown
Doppler factor
Unknown
Orbital elements
Apogee altitude
31,271.507 km
Perigee altitude
1,052.896 km
Semi-major axis
22,540.339 km
Eccentricity
0.67032
Inclination
26.6552°
RAAN
200.958°
Arg. of periapsis
67.666°
True anomaly
343.1428°
Mean anomaly
357.5021°
Eccentric anomaly
352.46728°
Mean motion
0.64136 °/min
Orbital period
561.31 mins
BSTAR
0
Loading maneuver chart data...
Computing Atmospheric mass density...

Documentation

Showing up to 5 results
|